Regional Weather Roundup
Issued by NWS Jackson, KY

Home | Current Version | Previous Version | Graphics & Text | Print | Product List | Glossary On
Versions: 1 2 3 4 5 6 7 8 9 10 11 12 13 14 15 16 17 18 19 20 21 22 23 24 25 26 27 28 29 30 31 32 33 34 35 36 37 38 39 40 41 42 43 44 45 46 47 48 49 50
000
ASUS43 KJKL 191311
RWRJKL

EAST KENTUCKY HOURLY WEATHER ROUNDUP
NATIONAL WEATHER SERVICE JACKSON KY
900 AM EDT FRI SEP 19 2014

NOTE: "FAIR" INDICATES FEW OR NO CLOUDS BELOW 12,000 FEET WITH
NO SIGNIFICANT WEATHER AND/OR OBSTRUCTIONS TO VISIBILITY.

* THESE REPORTS ARE NOT UNDER NWS QUALITY CONTROL AND MAY NOT
  REPORT WEATHER SUCH AS PRECIPITATION AND FOG.

KYZ079-080-083-085-087-088-110-112-115-119-120-191400
...EASTERN KENTUCKY...

CITY           SKY/WX    TMP DP  RH WIND       PRES   REMARKS
JACKSON        SUNNY     56  50  80 CALM      30.14S
LONDON         SUNNY     59  53  80 CALM      30.13S
MONTICELLO*    SUNNY     60  56  87 CALM      30.13S
WILLIAMSBURG*  CLOUDY    54  54 100 CALM      30.13R
MIDDLESBORO*   FOG       54  54 100 CALM      30.15R VSB 1/2
HARLAN APT*    CLOUDY    54  54 100 MISG      30.15R VSB 1/2
BLACK MTN*       N/A     61  57  88 SE1         N/A
PIKEVILLE APT* FOG       54  54 100 CALM      30.14S VSB 1/4
BIG SANDY*     SUNNY     54  53  95 NE3       30.15S
MOREHEAD APT*  SUNNY     57  48  72 E8        30.18R
$$

KYZ035-036-041-042-044-050-067-078-099-191400
...CENTRAL KENTUCKY...

CITY           SKY/WX    TMP DP  RH WIND       PRES   REMARKS
MT STERLING*   SUNNY     55  48  76 E6        30.17R
FLEMING/MASON* SUNNY     54  50  87 NE8       30.19R
DANVILLE*      SUNNY     54  50  87 NE3       30.15R
RICHMOND*      SUNNY     55  50  82 CALM      30.13S
LEXINGTON      SUNNY     60  48  64 NE7       30.15R
FRANKFORT      SUNNY     57  48  72 NE7       30.15R
$$

KYZ091>093-OHZ055-061-077-WVZ005-015-034-035-042-191400
...SOUTHERN OHIO/WEST VIRGINIA...

CITY           SKY/WX    TMP DP  RH WIND       PRES   REMARKS
COVINGTON      SUNNY     57  50  77 E10       30.18R
COLUMBUS       SUNNY     58  48  69 E8        30.21R
DAYTON         MOSUNNY   56  50  80 E8        30.22R
WILMINGTON     SUNNY     52  49  89 NE7       30.20R FOG
HUNTINGTON     SUNNY     54  50  86 NE6       30.16S
CHARLESTON     MOSUNNY   52  52 100 NE3       30.16S
PINEVILLE*     MOSUNNY   55  55 100 MISG      30.21F FOG
BECKLEY        PTSUNNY   60  55  83 SE9       30.19R
BLUEFIELD      CLOUDY    60  55  83 NE5       30.20S
$$

VAZ002-007-008-TNZ017-027-036-066-071-191400
...SOUTHWEST VIRGINIA/EAST TENNESSEE...

CITY           SKY/WX    TMP DP  RH WIND       PRES   REMARKS
WISE*          SUNNY     63  59  88 CALM      30.18R
JONESVILLE*    SUNNY     57  55  94 CALM      30.16R
ABINGDON*      SUNNY     64  60  87 E9        30.16S
BRISTOL        SUNNY     60  55  83 CALM      30.14S
KNOXVILLE      MOSUNNY   62  56  80 NE10      30.10R
OAK RIDGE      SUNNY     63  57  81 NE3       30.13R
CROSSVILLE     SUNNY     62  55  77 CALM      30.13R
NASHVILLE      MOSUNNY   64  59  83 NE5       30.07R
$$

...KEY TO REMARKS...
VSB - VISIBILITY IN MILES
WCI - WIND CHILL INDEX
HX  - HEAT INDEX

$$


USA.gov is the U.S. government's official web portal to all federal, state and local government web resources and services.